| time (UTC) | temp F | wind direction | speed MPH | gust MPH | rain 1hr in | rain 24hr in | rain mn in | humidity % | barometer mb |
| 20260504050105 | 41 | 0 | 0.0 | 2.0 | 0.00 | 0.00 | 0.00 | 66 | 1017.0 |
| 20260504044546 | 41 | 0 | 0.0 | 0.0 | 0.00 | 0.00 | 0.00 | 64 | 1016.9 |
| 20260504043039 | 42 | 0 | 0.0 | 0.0 | 0.00 | 0.00 | 0.00 | 63 | 1016.8 |
| 20260504041538 | 43 | 81 | 0.0 | 2.0 | 0.00 | 0.00 | 0.00 | 61 | 1016.7 |
| 20260504040045 | 43 | 0 | 0.0 | 1.0 | 0.00 | 0.00 | 0.00 | 59 | 1016.6 |
| 20260504034542 | 44 | 0 | 0.0 | 3.0 | 0.00 | 0.00 | 0.00 | 57 | 1016.7 |
| 20260504033044 | 45 | 104 | 1.0 | 3.0 | 0.00 | 0.00 | 0.00 | 54 | 1016.6 |
| 20260504031545 | 45 | 360 | 1.0 | 4.0 | 0.00 | 0.00 | 0.00 | 52 | 1016.5 |
| 20260504030037 | 45 | 0 | 0.0 | 2.0 | 0.00 | 0.00 | 0.00 | 51 | 1016.5 |
| 20260504024601 | 46 | 0 | 0.0 | 1.0 | 0.00 | 0.00 | 0.00 | 49 | 1016.8 |
| 20260504023045 | 47 | 0 | 0.0 | 1.0 | 0.00 | 0.00 | 0.00 | 47 | 1016.7 |
| 20260504021542 | 47 | 0 | 0.0 | 2.0 | 0.00 | 0.00 | 0.00 | 46 | 1016.6 |
| 20260504020042 | 48 | 353 | 1.0 | 4.0 | 0.00 | 0.00 | 0.00 | 45 | 1016.6 |
| 20260504014539 | 48 | 0 | 0.0 | 0.0 | 0.00 | 0.00 | 0.00 | 42 | 1016.5 |
| 20260504013046 | 49 | 0 | 0.0 | 3.0 | 0.00 | 0.00 | 0.00 | 40 | 1016.3 |
| 20260504011544 | 50 | 56 | 0.0 | 3.0 | 0.00 | 0.00 | 0.00 | 39 | 1016.1 |
| 20260504010043 | 51 | 0 | 0.0 | 2.0 | 0.00 | 0.00 | 0.00 | 37 | 1016.0 |
| 20260504004545 | 52 | 0 | 0.0 | 4.0 | 0.00 | 0.00 | 0.00 | 37 | 1015.9 |
| 20260504003043 | 53 | 14 | 1.0 | 3.0 | 0.00 | 0.00 | 0.00 | 35 | 1015.8 |
| 20260504001542 | 54 | 30 | 1.0 | 4.0 | 0.00 | 0.00 | 0.00 | 32 | 1015.6 |
| 20260504000112 | 56 | 67 | 1.0 | 5.0 | 0.00 | 0.00 | 0.00 | 30 | 1015.5 |
| 20260503234550 | 56 | 68 | 1.0 | 9.0 | 0.00 | 0.00 | 0.00 | 29 | 1015.6 |
| 20260503233038 | 57 | 106 | 2.0 | 11.0 | 0.00 | 0.00 | 0.00 | 28 | 1015.5 |
| 20260503231538 | 57 | 71 | 3.0 | 10.0 | 0.00 | 0.00 | 0.00 | 28 | 1015.6 |
| 20260503230046 | 57 | 108 | 3.0 | 13.0 | 0.00 | 0.00 | 0.00 | 27 | 1015.6 |
| 20260503224543 | 58 | 66 | 3.0 | 9.0 | 0.00 | 0.00 | 0.00 | 28 | 1015.7 |
| 20260503223040 | 59 | 33 | 5.0 | 12.0 | 0.00 | 0.00 | 0.00 | 26 | 1015.8 |
| 20260503221553 | 59 | 103 | 2.0 | 13.0 | 0.00 | 0.00 | 0.00 | 27 | 1015.7 |
| 20260503220045 | 59 | 69 | 2.0 | 12.0 | 0.00 | 0.00 | 0.00 | 27 | 1015.8 |
| 20260503214544 | 59 | 74 | 8.0 | 14.0 | 0.00 | 0.00 | 0.00 | 25 | 1015.9 |
| 20260503213047 | 59 | 58 | 4.0 | 10.0 | 0.00 | 0.00 | 0.00 | 25 | 1016.3 |
| 20260503211539 | 58 | 60 | 4.0 | 14.0 | 0.00 | 0.00 | 0.00 | 25 | 1016.3 |
| 20260503210045 | 59 | 117 | 5.0 | 14.0 | 0.00 | 0.00 | 0.00 | 24 | 1016.1 |
| 20260503204544 | 58 | 168 | 3.0 | 15.0 | 0.00 | 0.00 | 0.00 | 25 | 1016.3 |
| 20260503203056 | 58 | 172 | 3.0 | 12.0 | 0.00 | 0.00 | 0.00 | 26 | 1016.5 |
| 20260503201538 | 58 | 95 | 3.0 | 14.0 | 0.00 | 0.00 | 0.00 | 26 | 1016.7 |
| 20260503200037 | 57 | 199 | 4.0 | 15.0 | 0.00 | 0.00 | 0.00 | 27 | 1017.0 |
| 20260503194552 | 57 | 133 | 4.0 | 11.0 | 0.00 | 0.00 | 0.00 | 27 | 1017.2 |
| 20260503193047 | 57 | 87 | 5.0 | 13.0 | 0.00 | 0.00 | 0.00 | 27 | 1017.4 |
| 20260503191541 | 57 | 117 | 5.0 | 13.0 | 0.00 | 0.00 | 0.00 | 29 | 1017.7 |
| 20260503190040 | 55 | 66 | 5.0 | 11.0 | 0.00 | 0.00 | 0.00 | 32 | 1018.0 |
| 20260503184537 | 55 | 163 | 6.0 | 10.0 | 0.00 | 0.00 | 0.00 | 30 | 1018.0 |
| 20260503183042 | 55 | 111 | 4.0 | 10.0 | 0.00 | 0.00 | 0.00 | 29 | 1018.0 |
| 20260503181538 | 54 | 98 | 6.0 | 14.0 | 0.00 | 0.00 | 0.00 | 31 | 1018.0 |
| 20260503180040 | 53 | 158 | 4.0 | 10.0 | 0.00 | 0.00 | 0.00 | 34 | 1018.4 |
| 20260503174545 | 53 | 69 | 7.0 | 15.0 | 0.00 | 0.00 | 0.00 | 34 | 1018.6 |
| 20260503173053 | 52 | 106 | 6.0 | 14.0 | 0.00 | 0.00 | 0.00 | 33 | 1018.8 |
| 20260503171540 | 51 | 180 | 3.0 | 14.0 | 0.00 | 0.00 | 0.00 | 35 | 1018.8 |
| 20260503081545 | 33 | 0 | 0.0 | 0.0 | 0.00 | 0.00 | 0.00 | 78 | 1016.5 |